This is the latest recevied weather packets stored in our database for station/object WC0AA-WX. If no packets are shown the sender has not sent any weather packets the latest 1 day(s).
| Time | Temp. | Humidity | Pressure | Rain* | Wind** | Luminosity | Snow |
|---|---|---|---|---|---|---|---|
| 1778021904 | 13.33° C | 46% | 1012.3 hPa | 0 mm | 0.89 m/s, 351° | - | - |
| 1778021303 | 13.33° C | 45% | 1012.3 hPa | 0 mm | 0.45 m/s, 12° | - | - |
| 1778020702 | 13.33° C | 44% | 1012.5 hPa | 0 mm | 0 m/s | - | - |
| 1778019500 | 13.33° C | 44% | 1012.1 hPa | 0 mm | 4.02 m/s, 11° | - | - |
| 1778017698 | 13.33° C | 43% | 1012.5 hPa | 0 mm | 4.47 m/s, 348° | - | - |
| 1778016496 | 13.33° C | 42% | 1012.6 hPa | 0 mm | 2.68 m/s, 339° | - | - |
| 1778011688 | 13.89° C | 43% | 1012.9 hPa | 0 mm | 6.26 m/s, 290° | - | - |
| 1778011087 | 13.89° C | 44% | 1012.9 hPa | 0 mm | 4.02 m/s, 351° | - | - |
| 1778009885 | 13.33° C | 47% | 1013 hPa | 0 mm | 0.89 m/s, 245° | - | - |
| 1778009284 | 13.33° C | 49% | 1012.9 hPa | 0 mm | 2.24 m/s, 315° | - | - |
| 1778007482 | 13.89° C | 43% | 1012.9 hPa | 0 mm | 5.81 m/s, 313° | - | - |
| 1778006279 | 13.89° C | 50% | 1013.1 hPa | 0 mm | 0 m/s | - | - |
| 1778005078 | 13.33° C | 52% | 1013.5 hPa | 0 mm | 3.58 m/s, 22° | - | - |
| 1778004477 | 13.33° C | 55% | 1013.5 hPa | 0 mm | 0 m/s | - | - |
| 1778003876 | 12.78° C | 57% | 1013.4 hPa | 0 mm | 0 m/s | - | - |
| 1778002674 | 12.78° C | 54% | 1013.5 hPa | 0 mm | 1.34 m/s, 329° | - | - |
| 1778002073 | 12.78° C | 57% | 1013.7 hPa | 0 mm | 0 m/s | - | - |
| 1778000270 | 12.22° C | 60% | 1013.6 hPa | 0 mm | 0 m/s | - | - |
| 1777999670 | 12.22° C | 64% | 1013.6 hPa | 0 mm | 0 m/s | - | - |
| 1777998467 | 11.67° C | 70% | 1013.5 hPa | 0 mm | 0 m/s | - | - |
| 1777997867 | 11.67° C | 72% | 1013.2 hPa | 0 mm | 0 m/s | - | - |
| 1777997266 | 11.11° C | 73% | 1013.2 hPa | 0 mm | 0 m/s | - | - |
| 1777996664 | 11.11° C | 74% | 1013.3 hPa | 0 mm | 0 m/s | - | - |
| 1777993660 | 10° C | 80% | 1013.4 hPa | 0 mm | 0 m/s | - | - |
| 1777993059 | 9.44° C | 82% | 1013.1 hPa | 0 mm | 3.13 m/s, 324° | - | - |
* Rain latest hour (hover to see other rain measurements)
** Current wind speed in m/s (hover to see current wind gust speed)